Location: Passau
(48.5721°N, 13.4363°E)
Time: 07:39:16
(UTC+01:00)

N. Korean satellite - Visible Passes

Search period start: 21 November 2017 00:00
Search period end: 01 December 2017 00:00
Orbit: 460 x 514 km, 97.2° (Epoch: 20 November)

Date Brightness Start Highest point End Pass type
(mag) Time Alt. Az. Time Alt. Az. Time Alt. Az.
21 Nov 7.9 06:41:43 10° NNE 06:45:21 48° E 06:49:00 10° S visible
21 Nov 7.2 17:21:51 10° SE 17:25:02 32° ENE 17:28:16 10° N visible
21 Nov 9.3 18:55:59 10° SW 18:58:38 20° W 19:01:20 10° NW visible
22 Nov 9.2 06:18:33 10° NE 06:21:47 27° E 06:25:00 10° SSE visible
22 Nov 7.9 16:59:10 10° ESE 17:01:43 19° ENE 17:04:18 10° NNE visible
22 Nov 8.2 18:31:44 10° SSW 18:35:00 36° W 18:38:21 10° NNW visible
23 Nov 9.9 05:55:50 10° NE 05:58:07 15° E 06:00:25 10° SE visible
23 Nov 6.8 18:07:55 10° S 18:11:27 70° WSW 18:15:04 10° NNW visible
24 Nov 6.5 17:44:28 10° SSE 17:47:58 60° ENE 17:51:33 10° N visible
24 Nov 10.1 19:20:45 10° WSW 19:21:54 11° W 19:23:04 10° WNW visible
25 Nov 7.9 06:41:17 10° NNE 06:44:56 48° E 06:48:35 10° S visible
25 Nov 7.2 17:21:22 10° SE 17:24:34 32° ENE 17:27:50 10° N visible
25 Nov 9.3 18:55:28 10° SW 18:58:10 20° W 19:00:56 10° NW visible
26 Nov 9.1 06:18:06 10° NE 06:21:21 27° E 06:24:33 10° SSE visible
26 Nov 8.0 16:58:39 10° ESE 17:01:14 19° ENE 17:03:52 10° NNE visible
26 Nov 8.2 18:31:13 10° SSW 18:34:31 36° W 18:37:55 10° NNW visible
27 Nov 9.9 05:55:21 10° NE 05:57:39 15° E 05:59:57 10° SE visible
27 Nov 6.8 18:07:24 10° S 18:10:57 71° W 18:14:36 10° NNW visible
28 Nov 6.5 17:43:55 10° SSE 17:47:27 60° ENE 17:51:05 10° N visible
28 Nov 10.0 19:20:07 10° WSW 19:21:23 11° W 19:22:41 10° WNW visible
29 Nov 7.9 06:40:46 10° NNE 06:44:27 48° E 06:48:05 10° S visible
29 Nov 7.3 17:20:48 10° SE 17:24:02 32° ENE 17:27:21 10° N visible
29 Nov 9.3 18:54:53 10° SW 18:57:38 20° W 19:00:26 10° NW visible
30 Nov 9.1 06:17:35 10° NE 06:20:49 26° E 06:24:03 10° SSE visible
30 Nov 8.0 16:58:04 10° ESE 17:00:42 19° ENE 17:03:21 10° NNE visible
30 Nov 8.1 18:30:37 10° SSW 18:33:58 37° W 18:37:25 10° NNW visible
